Retour au catalogue

CZ-3B R/B

ActifHEO
NORAD 55913·ROCKET BODY·🇨🇳 China

Lancé Mar 17, 2023 depuis Xichang Satellite Launch Center

Loading…

Prochains Passages (prochaines 24 heures)

TLE

FraisSource: Space-Track

Époque: Sep 14, 2026, 12:31 UTC

1 55913U 23036B   26257.52187425  .00062277 -32066-6  84184-3 0  9999
2 55913  28.1421 257.8623 4496540 212.9943 108.6099  6.64699673 55254

Suivez CZ-3B R/B en temps réel avec AllMySat

Download on the App Store